Location: Lucerne Valley
(34.4439°N, 116.9669°E)
Time: 22:54:33
(UTC-07:00)

OTV 5 (USA 277) - Pass Details

Date: 15 October 2017
Orbit: 404 x 417 km, 43.0° (Epoch: 07 September)

Event Time Altitude Azimuth Distance (km) Brightness Sun altitude
Rises 03:21:16 0° 282° (WNW) 2,349 ? -9.7°
Reaches altitude 10° 03:23:43 10° 299° (WNW) 1,487 ? -10.2°
Maximum altitude 03:26:21 21° 351° (N) 1,000 ? -10.7°
Drops below altitude 10° 03:28:59 10° 42° (NE) 1,488 ? -11.3°
Enters shadow 03:29:00 10° 43° (NE) 1,496 ? -11.3°
